Прошивки –  Каталог навигаторов –  Восстановление навигатора

Вернуться   Мир Автомобильных навигаторов > PNA / PND Устройства > Автомагнитолы
Регистрация ФайлыПравила форумаБан-лист Справка Календарь Поиск Сообщения за день Все разделы прочитаны

Важная информация


     
Ответ
 
Опции темы
Старый 02.03.2014, 11:46   #1
turinec
Новичок
Доп. информация
По умолчанию Intro InCar CHR - 2 din (магнитолы НЕ на платформе i9/i10/D2280)

[[Ссылки могут видеть только зарегистрированные пользователи. ]]>

Владельцы InCar CHR-7ххх - присоединяйтесь. Будем думать, что с ней можно сделать, а то пока одному страшновато.
[[Ссылки могут видеть только зарегистрированные пользователи. ]]>
Все остальное по этой магнитоле.
Картинки



Характеристики
Характеристики отсюда [[Ссылки могут видеть только зарегистрированные пользователи. ]]>
Параметры дисплея 7" сенсорный, широкоформатный 16:9 TFT LCD, высокого разрешения, 800 х 480 точек, 400 cd/m²
Встроенный GPS приемник, Навигационное ПО в комплекте на SD/MMC карте памяти Навител (лицензия)
Операционная система Windows CE 6.0
Возможность выхода в Интернет, отображение пробок на дороге опционально (модем GPS 3G)
Возможность подключения дополнительно фронтальной камеры и активации ее с дисплея есть
Подсветка кнопок изменяемая
Процессор ARM (с вентилятором для охлаждения)
Встроенный FM/AM тюнер есть, 30 станции предустановки
Удобный русифицированный пользовательский интерфейс есть
Выбор логотипа загрузки** есть
Поддержка CD/DVD без CD/DVD привода
Поддержка SD/USB есть
Поддержка Bluetooth, записная книжка контактов есть
Поддержка форматов файлов*** mp3, wma, wave, mpeg1, mpeg2, mpeg4, wmv, jpeg, gif, bmp
Штатное подключение к кнопкам руля**** есть
Возможность подключения дополнительного монитора есть
Подключение камеры заднего вида есть
TV-тюнер встроенный аналоговый SECAM
Аудио выходы на усилитель есть (модель CDA-4.100)
Отдельный выход на сабвуфер есть (модель INT-801SW)
Возможность подключения iPod/iPhone есть, кабель в комплекте
Пульт Д/У в комплекте


Видео обзор небольшой здесь
[[Ссылки могут видеть только зарегистрированные пользователи. ]]>


PortTool Log v. 1, 0, 0, 23
PortTool Log v. 1, 0, 0, 23
PortTool execution path: \Storage Card\?????_W-CE\PortTool_v1.0.0.23\PortTool.exe
CPU: ARM rev.7
Path to navi: [ ]
USB: [Async/Flash card/CardReader]
UUID in About: [yes/no]
Internet: [yes/no]
RAM: total: 195 Mb, avail: 137 Mb
UUID: 16 byte: 00 00 00 00 00 00 00 00 - 00 00 00 00 00 00 00 0A (0000000000000000000000000000000A)
UUID check: 0
Screen: 800x480 16 bit
OS Version: 6
Battery percent: 0
wininet.dll: yes
OEM info: 'Shenzhen_Yecon_Industry' 48 byte: 53 00 68 00 65 00 6E 00 7A 00 68 00 65 00 6E 00 5F 00 59 00 65 00 63 00 6F 00 6E 00 5F 00 49 00 6E 00 64 00 75 00 73 00 74 00 72 00 79 00 00 00
THUMB: yes
MemAccess: Mapping - 126 ms malloc() - 125 ms Factor: 1 (ok)
FlashCards
name: Residentflash
name: DSK9:
Disk size: 2.93 Mb 3067904 bytes
flashID: none
Write/Read test: Ok
Mapping: Not enough free space

name: Residentflash3
name: DSK9:
Disk size: 4.92 Mb 5156864 bytes
flashID: none
Write/Read test: Ok
Mapping: Not enough free space

name: Residentflash2
name: DSK9:
Disk size: 50.24 Mb 52678656 bytes
flashID: none
Write/Read test: Ok
Mapping: Not enough free space

name: SDMMC
name: DSK1:
Disk size: 7376.00 Mb bytes
flashID: 44 41 41 33 41 45 36 38 00 00 . 32 37
flashID (for registration): 27DAA3AE6800
Write/Read test: Ok
Mapping: AVR Write: 388 KB/s
AVR Read: 0 KB/s
Mapping: Failed
Mapping time: 48 sec, 0 %

name: Storage Card
name: DSK2:
Disk size: 3804.00 Mb bytes
flashID: 30 30 30 30 30 30 30 41 00 00 . 31 31
flashID (for registration): 110000000A00
Write/Read test: Ok
Mapping: AVR Write: 599 KB/s
AVR Read: 0 KB/s
Mapping: Failed
Mapping time: 42 sec, 0 %

name: USBDisk
name: DSK5:
Disk size: 7629.14 Mb bytes
flashID: none
Write/Read test: Ok
Mapping: AVR Write: 371 KB/s
AVR Read: 0 KB/s
Mapping: Failed
Mapping time: 50 sec, 0 %

GPS:
$GPGGA,083714.000,5602.25775,N,09252.59933,E,1,8,1 .32,236.2,M,-35.5,M,,*7C
$GPGSA,A,3,31,23,25,14,12,01,32,20,,,,,2.07,1.32,1 .59*0A
$GPGSV,3,1,11,31,80,189,42,32,60,231,35,20,41,292, 43,25,40,064,48*D
72
$GPGSV,3,2,11,14,36,107,38,12,15,033,28,01,14,257, 40,23,12,286,25*71
$GPGSV,3,3,11,04,03,352,,29,02,093,,43,-99,000,*63
$GPRMC,083714.000,A,5602.25775,N,09252.59933,E,0.0 11,78.28,010314,,A*43
$D
GPVTG,78.28,T,,M,0.011,N,0.021,K,A*0B
$GPGGA,083715.000,5602.25775,N,09252.59933,E,1,8,1 .32,236.2,M,-35.5,M,,*7D
$GPGSA,A,3,31,23,25,14,12,01,32,20,,,,,2.07,1.32,1 .59*0A
$GPGSV,3,1,11,31,80,189,42,D
32,60,231,35,20,41,292,43,25,40,064,48*72
$GPGSV,3,2,11,14,36,107,38,12,15,033,28,01,14,257, 40,23,12,286,25*71
$GPGSV,3,3,11,04,03,352,,29,02,093,,43,-99,000,*63
$GPRMC,083715.000,A,5602.25775,N,09D
Port: COM1:
Rate: 57600

$GPGGA,083717.000,5602.25775,N,09252.59934,E,1,8,1 .32,236.2,M,-35.5,M,,*78
$GPGSA,A,3,31,23,25,14,12,01,32,20,,,,,2.07,1.32,1 .59*0A
$GPGSV,3,1,11,31,80,189,42,32,60,231,35,20,41,292, 43,25,40,064,48*D
72
$GPGSV,3,2,11,14,36,107,38,12,15,033,28,01,14,257, 40,23,12,286,25*71
$GPGSV,3,3,11,04,03,352,,29,02,093,,43,-99,000,*63
$GPRMC,083717.000,A,5602.25775,N,09252.59934,E,0.0 15,78.28,010314,,A*43
$D
GPVTG,78.28,T,,M,0.015,N,0.028,K,A*06
$GPGGA,083718.000,5602.25775,N,09252.59934,E,1,7,1 .36,236.2,M,-35.5,M,,*7C
$GPGSA,A,3,31,25,14,12,01,32,20,,,,,,2.15,1.36,1.6 7*01
$GPGSV,3,1,11,31,80,189,42,32D
,60,231,35,20,41,292,43,25,40,064,48*72
$GPGSV,3,2,11,14,36,107,38,12,15,033,28,01,14,257, 40,23,12,286,24*70
$GPGSV,3,3,11,04,03,352,,29,02,093,,45,-99,000,*65
$GPRMC,083718.000,A,5602.25775,N,0925D
Port: COM2:
Rate: 57600

$GPGGA,083724.000,5602.25773,N,09252.59936,E,1,8,1 .32,236.2,M,-35.5,M,,*7C
$GPGSA,A,3,31,23,25,14,12,01,32,20,,,,,2.07,1.32,1 .59*0A
$GPGSV,3,1,11,31,80,189,42,32,60,231,35,20,41,292, 43,25,40,064,48*D
$GPGGA,083730.000,5602.25773,N,09252.59939,E,1,8,1 .32,236.3,M,-35.5,M,,*77
$GPGSA,A,3,31,23,25,14,12,01,32,20,,,,,2.06,1.32,1 .59*0B
$GPGSV,3,1,11,31,80,189,42,32,60,231,34,20,41,292, 43,25,40,064,48*D
$GPGGA,083736.000,5602.25772,N,09252.59941,E,1,6,2 .11,236.2,M,-35.5,M,,*72
$GPGSA,A,3,31,25,14,01,32,20,,,,,,,4.35,2.11,3.81* 0A
$GPGSV,3,1,11,31,80,189,42,32,60,231,34,20,41,292, 44,25,40,064,48*74
D
$GPGGA,083737.000,5602.25771,N,09252.59941,E,1,8,1 .32,236.2,M,-35.5,M,,*7C
$GPGSA,A,3,31,23,25,14,12,01,32,20,,,,,2.06,1.32,1 .59*0B
$GPGSV,3,1,11,31,80,189,42,32,60,231,34,20,41,292, 44,25,40,064,48*D
74
$GPGSV,3,2,11,14,35,107,37,12,15,033,28,01,14,257, 41,23,13,286,27*7F
$GPGSV,3,3,11,04,03,352,,29,02,093,,49,-99,000,*69
$GPRMC,083737.000,A,5602.25771,N,09252.59941,E,0.0 05,78.28,010314,,A*46
$D
$GPGGA,083742.000,5602.25770,N,09252.59943,E,1,8,1 .32,236.2,M,-35.5,M,,*7D
$GPGSA,A,3,31,23,01,25,14,12,32,20,,,,,2.06,1.32,1 .58*0A
$GPGSV,3,1,11,31,80,188,42,32,60,231,34,20,41,292, 44,25,40,064,48*D
$GPGGA,083748.000,5602.25770,N,09252.59944,E,1,8,1 .59,236.2,M,-35.5,M,,*7D
$GPGSA,A,3,31,23,01,25,14,12,32,20,,,,,2.62,1.59,2 .08*03
$GPGSV,3,1,11,31,80,188,42,32,60,231,31,20,41,292, 44,25,40,064,48*D
$GPGGA,083754.000,5602.25769,N,09252.59944,E,1,8,1 .31,236.1,M,-35.5,M,,*75
$GPGSA,A,3,31,23,01,25,14,12,32,20,,,,,2.06,1.31,1 .58*09
$GPGSV,3,1,11,31,80,188,42,32,60,231,29,20,41,292, 45,25,40,064,48*D
ClearCommError() failed
ClearCommError() failed
ClearCommError() failed
ClearCommError() failed
ClearCommError() failed
ClearCommError() failed
String test: Ok
System date/time: 11:38:07 01.03.2014 (11:38:07, 3/1/2014


Смена часового пояса описана там [[Ссылки могут видеть только зарегистрированные пользователи. ]]> Прошивка [[Ссылки могут видеть только зарегистрированные пользователи. ]]>
turinec вне форума  
7 пользователя(ей) сказали cпасибо:
Старый 11.06.2016, 17:14   #556
chetvertnoy
Вникающий
Доп. информация
По умолчанию

Цитата:
Сообщение от Саша2311 Посмотреть сообщение
При установке UI дает ошибку которую не успеваю прочесть

Карту памяти отформатируй правильно. Такая же проблема была. Карта должна быть в ФАТ32
chetvertnoy вне форума  
Пользователь сказал cпасибо:
Старый 21.07.2016, 18:44   #557
Sergio_Good
Вникающий
Доп. информация
По умолчанию Вариант использования магнитолы

Здравствуйте, уважаемые участники форума!
Хотел узнать Ваши мнения по такому вопросу.
Есть желание использовать одновременно программу навигации и, например, радио или музыкальный проигрыватель.

Хочется реализовать это следующим образом:
- Включается программа навигации (я пользуюсь IGO),
- включается музыка. При этом по аналогии с обычным компьютером навигация остается в фоне работать.
- По желанию я могу смотреть навигацию, затем переключиться на музыку, а затем снова на навигацию (при этом проложенный мною ранее маршрут продолжает отображаться).
- и так всю дорогу.
Это было бы удобно при дальних поездках.

Фактически же, после переключения с навигации на музыку, а потом возврата к навигации, навигационная программа снова загружается с нуля, необходимо заходить в меню программы, искать свой маршрут.
В дальней дороге это не удобно.

Может ли кто-то подсказать, можно ли реализовать желаемый мной вариант использования.
Заранее благодарен.

Комментарий модератора
frog2050:
Про какое ГУ идет речь ?
Sergio_Good вне форума  
Старый 21.07.2016, 23:42   #558
pvl_mksv
Новичок
Доп. информация
По умолчанию

ПОДЧЕРКИВАЮ, если речь об устройстве из заголовка темы, при использовании подарочного навитела(если купил в русском магазине), то:
включил нави, включил музыку - нави в фоне, периодически что-то бормочет, приглушая музыку, тыкаешь дом.-нави - на экране нави, музыка в фоне, приглушается когда нави бормочет.
если подцепил телефон и пришел входящий, то глушится все, потом возвращение на предыдущую задачу

Добавлено через 2 минуты
Народ, у меня лицуха на Навител 8.5 не обновляется до 9.6, хотя Престиджио норм обновлился через типовой Update Center, кто-нибудь сталкивался? Есть ли смысл держаться за лицензию или лучше выкашивать и ставить обнову с любимого форума?
Простите за поспешность, с обновой разобрался, РТФМ еще никто не отменял, однако предыдущий вопрос в силе.
pvl_mksv вне форума  
Старый 12.12.2016, 15:58   #559
kenrr
Вникающий
Доп. информация
По умолчанию

уважаемые форумчане! помогите решить проблему. подключил wi-fi адаптер к магнитоле в заголовке, сеть показывает но при подключении вводится только один символ пароля, как можно исправить ситуацию?
kenrr вне форума  
Старый 15.12.2016, 23:25   #560
1svasya
Новичок
Доп. информация
По умолчанию

kenrr, может попробовать копировать-вставить
1svasya вне форума  
Пользователь сказал cпасибо:
Старый 26.12.2016, 12:46   #561
A11igatorr
Вникающий
Доп. информация
По умолчанию

Всем здравствуйте.
Полистал данную тему, и в одном месте наткнулся на вопрос который остался без ответа, хотя меня он то же интересует.
Вопрос заключается в следующем: у меня ГУ 7130, очень тихо слышно в микрофон во время громкой связи. Менял ли кто нибудь на данном устройстве микрофон или доводили ли его до необходимой громкости?
За ранее спасибо.
A11igatorr вне форума  
Старый 26.12.2016, 14:33   #562
frog2050
Гуру
 
Аватар для frog2050
Доп. информация
По умолчанию

A11igatorr,
Попробуйте регулировать громкость на самом телефоне именно во время разговора.
__________________
[[Ссылки могут видеть только зарегистрированные пользователи. ]]> Представьте что у вас дома есть DVD медиа плеер с выходом HDMI и есть комп, тоже с выходом HDMI и оба они подключены к телеку.
Так вот, скажите как ваш комп увидит флешку вставленную в DVD плеер, хотя телек и показывает содержимое вашей флешки и комп тоже показывает на телеке.
Может так легче понять, как устроен медиа комбайн в машине ?
Сейчас у меня Citroen C4L Sedan с разными магнитолами
Раздача читательских билетов - бесплатно !!!
За что раздаётся :
[[Ссылки могут видеть только зарегистрированные пользователи. ]]>
frog2050 вне форума  
Старый 26.12.2016, 14:53   #563
A11igatorr
Вникающий
Доп. информация
По умолчанию

Если регулировать громкость на телефоне собеседника - то он и так на максимуме, а если со своего телефона - то настраивается громкость динамика, но не микрофона.
До этого ГУ стояла родная "башка" с встроенным блюпупом, слышимость меня у собеседников была отличная, так что я все таки склонен предпологать что дело в микрофоне данного ГУ.
A11igatorr вне форума  
Старый 05.01.2017, 19:08   #564
frog2050
Гуру
 
Аватар для frog2050
Доп. информация
По умолчанию

Цитата:
Сообщение от A11igatorr Посмотреть сообщение
так что я все таки склонен предпологать что дело в микрофоне данного ГУ.

Или в его расположении в вашем автомобиле.
__________________
[[Ссылки могут видеть только зарегистрированные пользователи. ]]> Представьте что у вас дома есть DVD медиа плеер с выходом HDMI и есть комп, тоже с выходом HDMI и оба они подключены к телеку.
Так вот, скажите как ваш комп увидит флешку вставленную в DVD плеер, хотя телек и показывает содержимое вашей флешки и комп тоже показывает на телеке.
Может так легче понять, как устроен медиа комбайн в машине ?
Сейчас у меня Citroen C4L Sedan с разными магнитолами
Раздача читательских билетов - бесплатно !!!
За что раздаётся :
[[Ссылки могут видеть только зарегистрированные пользователи. ]]>
frog2050 вне форума  
Старый 09.01.2017, 10:39   #565
kenrr
Вникающий
Доп. информация
По умолчанию

1svasya, копировать неоткуда,начинаю вписывать больше одного не получается.а где прописать чтобы потом скопировать?
Комментарий модератора
frog2050:
Ещё бы вы объяснили всем, чего хотите добиться и как вы это пытаетесь сделать.
Лучше снимите фото и на Ютуб закиньте, а сюда ссылочку
kenrr вне форума  
Старый 28.01.2017, 21:45   #566
VZosin
Вникающий
Доп. информация
По умолчанию

Если очень тихо слышно в микрофон во время громкой связи, то лучший способ - это замена микрофона. В магнитолах устанавливают микрофоны от сотовых диаметром 4-5 мм за отверстием в передней панели диаметром 1-1.5 мм. Ожидать высокой чувствительности не приходится. Неоднократно менял в разных автомагнитолах микрофон на другой диаметром 8-12 мм. Размер определяется конструктивными особенностями передней панели. Отверстие также увеличивал. Работа не сложная. Цена микрофонов 5-50 руб.
VZosin вне форума  
Старый 08.02.2017, 10:09   #567
yura174
Новичок
Доп. информация
По умолчанию

Всем привет! нужна помощь. Магнитола Incar 7130 хотел подключить WIFI D-Link DWA-125, нужно установить драйвер, не могу в магнитоле найти Nand flash. Где она находиться?
yura174 вне форума  
Старый 08.02.2017, 12:10   #568
frog2050
Гуру
 
Аватар для frog2050
Доп. информация
По умолчанию

yura174,
Запустите программу - PortTool, она расскажет.
__________________
[[Ссылки могут видеть только зарегистрированные пользователи. ]]> Представьте что у вас дома есть DVD медиа плеер с выходом HDMI и есть комп, тоже с выходом HDMI и оба они подключены к телеку.
Так вот, скажите как ваш комп увидит флешку вставленную в DVD плеер, хотя телек и показывает содержимое вашей флешки и комп тоже показывает на телеке.
Может так легче понять, как устроен медиа комбайн в машине ?
Сейчас у меня Citroen C4L Sedan с разными магнитолами
Раздача читательских билетов - бесплатно !!!
За что раздаётся :
[[Ссылки могут видеть только зарегистрированные пользователи. ]]>
frog2050 вне форума  
Старый 08.02.2017, 21:46   #569
Vitek6893
Вникающий
Доп. информация
По умолчанию

нужна прошивка mcu Incar 7130
Vitek6893 вне форума  
Старый 09.02.2017, 18:19   #570
yura174
Новичок
Доп. информация
По умолчанию

frog2050,
Вот посмотри
[[Ссылки могут видеть только зарегистрированные пользователи. ]]>
yura174 вне форума  
Ответ

Опции темы



Текущее время: 09:00. Часовой пояс GMT +3.


Powered by vBulletin® Version 3.8.9
Copyright ©2000 - 2017, Jelsoft Enterprises Ltd. Перевод: zCarot

Копирайты
Время генерации страницы 0.16655 секунды с 14 запросами